Athens, GA

6:24 AM EDT on July 30, 2016 (GMT -0400)
Athens / Epps

Weather History for KAHN - March, 2014

Change the Weather History Date:

Monday, March 31, 2014

  Actual Average Record
Temperature  
Mean Temperature 59 °F 58 °F  
Max Temperature 80 °F 70 °F 86 °F (1963)
Min Temperature 38 °F 46 °F 27 °F (1964)
Degree Days  
Heating Degree Days 6 8  
Month to date heating degree days 409 340  
Since 1 July heating degree days 2871 2595  
Cooling Degree Days 0 1  
Month to date cooling degree days 0 10  
Year to date cooling degree days 1 11  
Growing Degree Days 8 (Base 50)    
Moisture  
Dew Point 27 °F    
Average Humidity 38    
Maximum Humidity 64    
Minimum Humidity 12    
Precipitation  
Precipitation 0.00 in 0.13 in 2.74 in (1973)
Month to date precipitation 3.37 4.43  
Year to date precipitation 12.01 12.96  
Snow  
Snow 0.00 in 0.00 in 0.00 in (2002)
Month to date snowfall 0.0 0.8  
Since 1 July snowfall 2.8 2.9  
Snow Depth 0.00 in    
Sea Level Pressure  
Sea Level Pressure 30.10 in    
Wind  
Wind Speed 2 mph (WNW)    
Max Wind Speed 9 mph    
Max Gust Speed 13 mph    
Visibility 10 miles    
Events      
T = Trace of Precipitation, MM = Missing Value Source: NWS Daily Summary

Daily Weather History Graph

Daily Weather History Graph

Search for Another Location

Airport or City:

Trip Planner

Search our weather history database for the weather conditions in past years. The results will help you decide how hot, cold, wet, or windy it might be!

Date:

Astronomy

Mar. 31, 2014 Rise Set
Actual Time 7:22 AM EDT 7:53 PM EDT
Civil Twilight 6:56 AM EDT 8:18 PM EDT
Nautical Twilight 6:27 AM EDT 8:48 PM EDT
Astronomical Twilight 5:57 AM EDT 9:18 PM EDT
Moon 7:47 AM EDT (3/31) 9:06 PM EDT (3/31)
Length of Visible Light 13h 21m
Length of Day
12h 31m
New Moon, 1% of the Moon is Illuminated
Mar 31
New Moon
Apr 7
First Quarter
Apr 15
Full
Apr 22
Last Quarter
Apr 29
New

Hourly Weather History & Observations

Time (EDT) Temp. Windchill Dew Point Humidity Pressure Visibility Wind Dir Wind Speed Gust Speed Precip Events Conditions
12:51 AM 50.0 °F - 30.0 °F 46% 30.10 in 10.0 mi WNW 6.9 mph - N/A   Clear
1:51 AM 48.9 °F - 28.9 °F 46% 30.09 in 10.0 mi NW 5.8 mph - N/A   Clear
2:51 AM 48.0 °F - 28.0 °F 46% 30.09 in 10.0 mi NNW 3.5 mph - N/A   Clear
3:51 AM 44.1 °F 42.5 °F 28.0 °F 53% 30.09 in 10.0 mi West 3.5 mph - N/A   Clear
4:51 AM 44.1 °F 42.5 °F 28.0 °F 53% 30.08 in 10.0 mi WNW 3.5 mph - N/A   Clear
5:51 AM 42.1 °F 38.4 °F 28.0 °F 58% 30.10 in 10.0 mi NW 5.8 mph - N/A   Clear
6:51 AM 39.9 °F 36.7 °F 28.0 °F 63% 30.11 in 10.0 mi NW 4.6 mph - N/A   Clear
7:51 AM 39.9 °F - 28.9 °F 65% 30.12 in 9.0 mi Calm Calm - N/A   Clear
8:51 AM 46.9 °F - 30.9 °F 54% 30.14 in 9.0 mi WNW 3.5 mph - N/A   Clear
9:51 AM 53.1 °F - 30.0 °F 41% 30.15 in 8.0 mi Calm Calm - N/A   Clear
10:51 AM 62.1 °F - 28.0 °F 28% 30.17 in 10.0 mi Variable 3.5 mph - N/A   Clear
11:51 AM 66.9 °F - 25.0 °F 21% 30.16 in 10.0 mi Calm Calm - N/A   Clear
12:51 PM 72.0 °F - 23.0 °F 16% 30.15 in 10.0 mi Variable 5.8 mph - N/A   Clear
1:51 PM 73.9 °F - 19.9 °F 13% 30.13 in 10.0 mi Calm Calm - N/A   Clear
2:51 PM 77.0 °F - 21.9 °F 13% 30.10 in 10.0 mi Variable 4.6 mph - N/A   Clear
3:51 PM 75.9 °F - 23.0 °F 14% 30.08 in 10.0 mi Variable 4.6 mph - N/A   Clear
4:51 PM 78.1 °F - 21.0 °F 12% 30.07 in 10.0 mi Calm Calm - N/A   Clear
5:51 PM 78.1 °F - 23.0 °F 13% 30.06 in 10.0 mi Calm Calm - N/A   Clear
6:51 PM 75.0 °F - 27.0 °F 17% 30.06 in 10.0 mi SSW 3.5 mph - N/A   Clear
7:51 PM 70.0 °F - 30.0 °F 23% 30.06 in 10.0 mi South 3.5 mph - N/A   Clear
8:51 PM 64.9 °F - 30.9 °F 28% 30.08 in 9.0 mi Calm Calm - N/A   Clear
9:51 PM 64.0 °F - 32.0 °F 30% 30.09 in 6.0 mi Calm Calm - N/A   Haze
10:51 PM 60.1 °F - 32.0 °F 35% 30.10 in 10.0 mi Calm Calm - N/A   Clear
11:51 PM 59.0 °F - 30.9 °F 35% 30.09 in 10.0 mi Calm Calm - N/A   Clear